sat.trackr.live / text

‹ back to catalog

STARLINK-1185

NORAD 45087 · 2020-006AV

PAYLOAD ACTIVE UNKNOWN

§ Identity

Operator
Country
US
Launch date
2020-01-29
Launch site
AFETR
Launch vehicle
Mass (kg)
RCS (m²)

Purposes: comms

External: N2YO · Heavens-Above · Gunter

§ Orbital elements

Epoch: 2026-05-24T23:47:59.900928Z

Period
93.25 min
Inclination
53.1592°
Eccentricity
0.0004195
Mean motion
15.44273062 rev/d
Perigee alt
430.7 km
Apogee alt
436.4 km
Semi-major
6,811.7 km
B*
1.0130e-3
RAAN
242.9296°
Arg perigee
332.2088°
Mean anomaly
27.8694°
Rev number
34,884

§ Raw data

STARLINK-11851 45087U 20006AV  26144.99166552  .00047214  00000+0  10130-2 0  99962 45087  53.1592 242.9296 0004195 332.2088  27.8694 15.44273062348847

JSON: /api/v1/satellites/45087 · /tle

For live sub-satellite position, see the globe view (requires WebGL).

§ Visibility from observer

Set your observer location to see the next 7 days of passes ≥ 10°. The values pass through the URL so the page stays shareable.

No JS? Fill the form by hand. The geolocation button needs JavaScript.